(458370) = 2010 WL3

Discovered at Mount Lemmon on 2010-09-05 by Mt. Lemmon Survey.

Orbit

Orbit type: Main Belt

Note: WebGL enabled browser required.

epoch2023-09-13.0
epoch JD2460200.5
perihelion date2022-10-27.23045
perihelion JD2459879.73045
argument of perihelion (°)23.91042
ascending node (°)298.66439
inclination (°)1.23370
eccentricity0.2108174
perihelion distance (AU)2.0718885
Tisserand w.r.t. Jupiter3.4
ΔV w.r.t. Earth (km/sec)9.1
semimajor axis (AU)2.6253601
mean anomaly (°)74.32136
mean daily motion (°/day)0.23169710
aphelion distance (AU)3.179
period (years)4.25
P-vector [x]0.79406513
P-vector [y]-0.56108929
P-vector [z]-0.23375067
Q-vector [x]0.60753903
Q-vector [y]0.72069356
Q-vector [z]0.33391186
absolute magnitude17.34
phase slope0.15
uncertainty0
referenceMPEC 2023-Y46
observations used133
oppositions8
arc length (days)8122
first opposition used2001
last opposition used2023
residual rms (arc-secs)0.82
perturbers coarse indicatorM-v
perturbers precise indicator003Ek
first observation date used2001-09-19.0
last observation date used2023-12-15.0
computer nameMPCLINUX
JD of orbit computation2457429.949065
perihelion JD uncertainty (days)1.0046E-04
argument of perihelion uncertainty (°)2.8869E-04
ascending node uncertainty (°)2.8813E-04
inclination uncertainty (°)3.5343E-06
eccentricity uncertainty 1.7047E-07
perihelion distance uncertainty (AU)4.3598E-07
Minimum Orbit Intersection Distances (in AU)
for orbit epoch: 2460200.5, reference: E2023-Y46
Mercury1.65559
Venus1.34595
Earth1.05892
Mars0.68842
Jupiter2.13881
Saturn5.99512
Uranus15.2975
Neptune27.1261

Observations

135 total observations over interval: 2001 09 19.266980 – 2023 12 15.284600
These data are available for download (format description).

